2018-084A (43671 NORAD) Tracking and Keplerian Element Data

This shows tracking and keplerian element data for the satellite.

Feedback or suggestion? Click here.




ElementValue
Catalog43671
Name2018-084A
Epoch Orbit208
Epoch Day316.16724484
Epoch Year2018
RAAN66.6529
Inclination97.8476
Eccentricity0.000984
Argument of Perigee318.9981
Mean Anonmoly41.0546
Mean Motion14.92389172
Decay Rate0.00028942
L11 43671U 18084A 18316.16724484 .00028942 00000-0 28203-2 0 9999
L22 43671 97.8476 66.6529 0009840 318.9981 41.0546 14.92389172 2084

Live tracking and technical data element details for 2018-084A (NORAD 43671). 2018-084A can be tracked NOW for your location showing map with azimuth and elevation plus other details from your city location.

Track the satellite on the map from your city or location and see movement details for azimuth, elevation, latitude, longitude, range, height, and movement on the map or in text.







IsCatalogInMostPopularTable: catalog: 43671, numindb: 4
Update: records affected: 1



GetName: 43671 2018-084A

Hit Count: updated at: Tue, 13 Nov 2018 06:33:29 GMT